sat.trackr.live / text

‹ back to catalog

STARLINK-31135

NORAD 58771 · 2024-011G

PAYLOAD ACTIVE UNKNOWN

§ Identity

Operator
Country
US
Launch date
2024-01-14
Launch site
AFWTR
Launch vehicle
Mass (kg)
RCS (m²)

Purposes: comms

External: N2YO · Heavens-Above · Gunter

§ Orbital elements

Epoch: 2026-05-24T22:27:12.290688Z

Period
94.11 min
Inclination
53.1603°
Eccentricity
0.0001253
Mean motion
15.30198004 rev/d
Perigee alt
474.4 km
Apogee alt
476.1 km
Semi-major
6,853.4 km
B*
-2.1868e-5
RAAN
17.4277°
Arg perigee
91.0567°
Mean anomaly
269.0577°
Rev number
13,197

§ Raw data

STARLINK-311351 58771U 24011G   26144.93555892 -.00001007  00000+0 -21868-4 0  99972 58771  53.1603  17.4277 0001253  91.0567 269.0577 15.30198004131973

JSON: /api/v1/satellites/58771 · /tle

For live sub-satellite position, see the globe view (requires WebGL).

§ Visibility from observer

Set your observer location to see the next 7 days of passes ≥ 10°. The values pass through the URL so the page stays shareable.

No JS? Fill the form by hand. The geolocation button needs JavaScript.